DECAYED

STARLINK-1190, 45083 (Decayed)

Orbit data source: Space-Track

STARLINK-1190, 45083 was a payload satellite owned by SpaceX/Seattle (US) in LEO that was launched on Wed, 29 Jan 2020 UTC via an FALCON 9 launch vehicle from the Air Force Eastern Test Range (AFETR). Payload-class satellites include a variety of spacecraft equipped with specific instruments for various scientific and technological missions. These include communications satellites like Starlink; space stations such as the ISS; scientific satellites like the Hubble; Earth observation satellites from companies like Planet Labs, Umbra, and HawkEye 360; GPS; miniature CubeSats for education and research; and military/defense satellites.

Not visible in the next 10 days
Identifier
45083, 2020-006AR
Orbit
Decayed
Country
Flag of USUS
Related business
Manufacturer
SpaceX/Seattle
Mission
Decayed Commercial Communications
Bus & Motor
STARLINK, Unknown motor
Mass
260 kg wet, ~248 kg dry
Launch date (UTC)
2020-01-29 (6 years ago)
Launch vehicle
FALCON 9
Launch site
Air Force Eastern Test Range (AFETR)
Object type
Payload
Rocket body
Debris
Shape & HBR
Box + 1 Pan, 10.1 m
Radar Cross Section
13.562 m², Large (>1 m²)

Expand to show TLE details & history
Last TLE update: 5 months ago

TLE from 5 months ago
0 STARLINK-1190
1 45083U 20006AR  25330.44254796  .09431995  12492-4  29153-3 0  9997
2 45083  53.0242 302.4052 0003092 259.6747 100.3953 16.45008554322127
Epoch: 2025-11-26T10:37Z
TLE epoch observation values (Epoch: 2025-11-26T10:37:16.143Z)
Latitude
-0.00003°
Longitude
77.47417°
Altitude
153.806 km
Speed
7.815 km/s
True Right ascension
20h 09m 37s
True Declination
0° 00' 00"
Sunlit
Object was in daylight at epoch
Visualization orbit readout
Latitude
Unknown
Longitude
Unknown
Altitude
Unknown
Speed
Unknown
Apparent Right ascension
Unknown
Apparent Declination
Unknown
Sunlit
N/A
Visualization observer readout
Local Sidereal Time
07:21:13
Azimuth
Unknown
Elevation
Unknown
Doppler factor
Unknown
Orbital elements
Apogee altitude
154.824 km
Perigee altitude
150.785 km
Semi-major axis
6,530.942 km
Eccentricity
0.00031
Inclination
53.0242°
RAAN
302.4052°
Arg. of periapsis
259.6747°
True anomaly
100.43015°
Mean anomaly
100.3953°
Eccentric anomaly
100.41272°
Mean motion
4.11225 °/min
Orbital period
87.54 mins
BSTAR
0.00029153
Loading maneuver chart data...
Computing Atmospheric mass density...
Loading historical data...
Loading historical data...
Loading historical data...
Loading historical data...
Loading historical data...
Loading historical data...
Loading historical data...

Documentation

Showing up to 5 results
|